Lapse_Rate
4.3 5.7 5.8 5.8 6.1 5.7 5.2 5.2 5.4 5.0 4.5 4.9 4.5 2.5 2.2 3.5 5.5 5.3 4.6 4.6 5.0 4.0
4.5 4.9 5.0 4.9 5.8 5.4 5.8 6.3 4.9 4.0 2.6 2.3 2.4 1.8 2.1 2.9 4.4 5.8 4.6 4.3 3.8 4.3
5.0 4.2 4.4 4.0 5.0 4.8 5.2 5.4 5.4 4.5 2.9 1.8 0.3 0.9 1.3 2.2 4.1 6.1 5.4 4.4 3.8 4.7
4.3 4.0 3.6 3.4 4.6 3.8 3.7 3.6 4.2 4.8 4.6 3.2 1.4 1.4 1.6 1.3 1.9 4.9 6.5 5.7 4.4 3.4
3.8 3.4 2.8 2.5 2.9 3.7 3.2 3.4 3.0 2.7 3.0 2.9 3.4 2.5 1.9 1.2 1.6 2.1 4.2 6.4 6.3 5.7
3.4 3.2 3.2 3.2 2.9 2.9 2.8 2.8 2.6 2.9 3.6 3.4 3.3 2.8 1.9 2.3 1.9 2.5 1.9 2.1 2.3 4.2
3.3 3.1 2.7 3.2 3.4 4.1 3.6 2.6 2.8 3.7 4.1 2.8 2.8 2.4 2.8 3.0 3.0 4.1 3.5 -0.5 -2.4 -2.6
3.7 2.8 2.3 2.4 3.0 3.0 3.3 2.5 2.8 2.0 2.0 1.8 2.5 3.2 2.1 3.1 3.4 3.0 4.0 3.5 0.1 -1.0
3.7 3.0 1.9 1.8 2.2 2.3 2.8 2.1 1.8 1.9 2.5 1.5 3.5 3.2 2.5 1.8 2.7 3.1 3.9 3.4 2.5 1.1
4.1 3.4 2.3 1.7 1.5 1.4 2.0 2.0 1.4 2.4 2.7 3.1 4.1 4.0 2.9 1.7 1.4 2.0 3.2 4.8 3.5 1.6
4.2 3.6 3.0 2.0 1.5 1.8 2.6 2.4 2.4 2.0 2.4 3.1 3.2 6.1 3.8 1.5 1.3 1.1 1.5 3.0 4.9 4.4
4.7 3.8 2.9 2.5 2.4 2.1 2.4 3.1 3.3 3.2 2.2 2.3 2.4 4.2 4.0 1.8 1.9 1.6 1.2 1.5 2.5 3.6
5.0 3.8 3.1 2.9 2.8 3.2 3.3 3.9 3.1 4.0 3.5 3.6 3.8 5.7 4.0 2.7 1.7 1.0 0.2 1.4 1.7 3.4
3.6 4.6 3.3 2.6 1.8 2.6 2.8 3.0 2.1 2.5 2.2 2.5 3.2 3.9 4.2 3.5 2.1 1.8 2.0 1.4 1.1 1.0
Wind_Speed
14 9 11 13 12 10 11 12 17 16 16 16 15 15 15 12 11 12 12 19 17 13
12 15 13 15 13 11 13 12 16 16 17 16 15 16 14 12 14 12 12 15 18 15
13 13 14 13 17 15 14 14 14 16 17 17 17 17 16 12 15 15 11 10 14 17
15 15 14 12 15 16 16 16 16 15 14 17 19 18 16 15 15 16 15 12 14 18
15 15 15 15 15 16 16 16 17 17 17 18 18 19 18 18 15 15 12 14 13 14
13 13 15 15 16 16 18 18 17 18 18 18 18 20 21 18 16 15 10 8 8 6
13 12 12 12 13 14 15 16 16 16 17 18 18 19 21 20 18 14 13 13 13 13
13 11 12 12 13 13 14 14 16 18 19 19 19 16 20 21 20 19 15 14 12 12
14 13 14 14 14 14 15 15 16 18 19 20 15 35 31 22 17 19 18 16 14 13
13 14 15 15 15 17 16 16 17 17 18 18 19 35 31 28 13 15 17 17 15 14
14 14 14 15 16 16 14 16 15 16 17 16 17 33 31 26 13 13 16 17 18 15
12 14 14 15 15 14 13 13 13 14 17 19 18 34 32 20 12 13 13 13 16 17
11 13 13 13 13 12 12 12 11 13 14 21 16 30 32 25 11 14 12 13 15 29
10 8 13 12 10 12 11 12 12 13 13 15 18 19 31 31 14 11 10 11 13 15
Wind_Direction
345 334 327 328 328 330 330 325 329 330 332 330 323 314 307 291 276 232 210 212 220 216
348 343 336 333 333 336 332 336 336 340 338 341 335 323 305 295 281 252 218 214 214 216
349 345 340 342 344 343 339 342 343 344 347 347 344 339 330 320 292 269 244 221 217 221
354 351 349 349 348 348 349 350 349 349 352 356 349 347 342 330 316 297 254 236 229 222
354 353 353 354 356 352 352 353 352 351 355 0 2 354 354 341 329 311 284 257 240 245
356 355 354 353 354 351 358 359 357 356 357 358 1 5 359 352 344 335 352 7 17 274
358 353 352 353 355 351 354 1 360 355 357 5 4 9 9 0 360 359 349 45 35 42
357 355 356 358 358 356 0 4 2 360 5 7 12 10 15 13 8 9 4 4 40 32
360 358 2 1 0 2 4 8 12 8 7 8 14 13 14 24 14 11 14 5 1 17
358 0 2 1 2 5 7 6 14 9 12 11 14 16 14 18 22 17 9 11 6 8
3 6 4 4 5 2 3 8 8 9 11 12 15 19 18 13 21 22 16 6 14 8
6 8 8 7 1 359 2 8 9 11 8 14 10 17 20 25 14 22 22 13 6 16
12 18 9 5 2 1 3 9 7 13 15 14 11 13 22 24 13 18 23 18 18 19
12 23 10 4 3 7 9 11 13 11 12 16 14 14 21 24 25 19 23 17 11 12